Weather observations for the past three days for
Togiac Village, Togiak Airport
Metric (Imperial)
Date Time (akdt) Wind (kph) Vis. (km) Weather Sky Cond. Temperature (ºC) Relative Humidity Wind Chill (°C) Heat Index (°C) Pressure Precipitation (cm)
Air Dwpt 6 hour altimeter (cm) sea level (mb) 1 hr 3 hr 6 hr
Max. Min.
04 05:56 N 17 16.09 Overcast OVC040 0.6 -0.6 92% -4 75.67 1008.8
04 03:56 N 15 16.09 Mostly Cloudy BKN050 BKN065 0.6 -0.6 4.4 0 92% -3 75.77 1010.1
04 02:56 N 15 16.09 Mostly Cloudy BKN050 0.6 -1.1 89% -3 75.77 1010.0
04 01:56 N 13 16.09 Partly Cloudy SCT060 0.6 -0.6 92% -3 75.84 1011.1
04 00:56 N 13 16.09 Mostly Cloudy BKN060 0.6 -0.6 92% -3 75.92 1012.2
03 23:56 NE 13 16.09 Fair CLR 2.2 0 86% -1 76.02 1013.5
03 22:56 N 9 16.09 Fair CLR 2.2 0 86% -0 76.2 1016.0
03 21:56 NW 13 16.09 Fair CLR 4.4 0.6 7.8 3.9 77% 2 76.38 1018.3
03 20:56 NW 11 16.09 Fair CLR 7.2 0 61% 5 76.56 1020.7
03 19:56 Vrbl 6 16.09 A Few Clouds FEW049 6.1 2.8 80% 76.58 1020.8
03 18:56 S 11 16.09 Fair CLR 3.9 2.2 89% 1 76.56 1020.6
03 17:56 S 13 16.09 Fair CLR 4.4 2.8 89% 2 76.56 1020.7
03 16:56 S 13 16.09 Fair CLR 3.9 2.2 89% 1 76.56 1020.7
03 15:56 S 15 16.09 Fair CLR 3.9 2.2 3.9 0 89% 1 76.56 1020.8
03 14:56 S 11 16.09 Fair CLR 3.9 1.7 86% 1 76.58 1020.8
03 13:56 S 9 16.09 Mostly Cloudy BKN060 3.9 2.2 89% 2 76.53 1020.3
03 12:56 S 13 16.09 Overcast OVC007 2.2 1.7 97% -1 76.38 1018.3
03 11:56 S 9 4.83 Fog/Mist OVC005 0.6 0.6 100% -2 76.23 1016.1
03 10:56 S 7 0.80 Fog OVC003 0.6 0 96% -1 76.12 1015.0
03 09:56 S 6 0.80 Fog OVC003 0 0 0 -1.1 100% 76.07 1014.4
03 08:56 S 6 1.21 Fog/Mist OVC003 -0.6 -0.6 100% 76.12 1014.8
03 07:56 Calm 0.80 Freezing Fog OVC003 -0.6 -0.6 100% 75.92 1012.1
03 06:56 S 7 0.80 Freezing Fog OVC003 -0.6 -0.6 100% -3 75.9 1011.9
03 05:56 SE 7 0.80 Unknown Precip Freezing Fog OVC003 -0.6 -0.6 100% -3 76 1013.1
03 04:56 Calm 0.80 Freezing Fog OVC003 -0.6 -1.1 96% 75.97 1012.8
03 03:56 S 9 1.61 Fog/Mist OVC003 -0.6 -1.1 1.1 -0.6 96% -3 75.84 1011.2
03 02:56 S 15 16.09 Overcast OVC003 -0.6 -0.6 100% -5 75.95 1012.5
03 01:56 S 19 0.80 Unknown Precip Fog OVC003 0 -0.6 96% -5 75.92 1012.1
03 00:56 S 15 9.66 Light Rain Fog/Mist OVC003 0.6 0 96% -3 75.84 1011.3
02 23:56 S 13 16.09 Overcast OVC010 0.6 0.6 100% -3 75.87 1011.5
02 22:56 SE 15 16.09 Overcast OVC011 1.1 0.6 97% -3 75.9 1011.8
02 21:56 SE 17 16.09 Overcast BKN013 OVC100 1.1 0.6 3.3 1.1 97% -3 75.95 1012.6
02 20:56 SE 20 16.09 Partly Cloudy SCT100 1.7 1.1 96% -3 75.79 1010.6
02 19:56 SE 17 16.09 A Few Clouds FEW010 2.2 1.1 93% -2 75.82 1010.9
02 18:56 SE 20 16.09 A Few Clouds FEW017 2.2 1.1 93% -2 75.87 1011.5
02 17:56 SE 19 16.09 Overcast SCT013 OVC041 2.8 1.7 93% -1 75.95 1012.5
02 16:56 SE 19 16.09 Overcast OVC039 2.8 1.1 89% -1 75.97 1013.0
02 15:56 S 9 16.09 Overcast BKN013 OVC041 3.3 2.2 3.3 0.6 93% 1 76 1013.2
02 14:56 SE 22 16.09 Overcast FEW019 OVC045 1.7 1.1 96% -3 75.79 1010.6
02 13:56 SE 26 16.09 Overcast BKN013 OVC018 1.7 1.1 96% -3 75.77 1010.2
02 12:56 S 20 14.48 Overcast OVC014 1.1 1.1 100% -3 75.64 1008.4
02 11:56 S 24 16.09 Light Rain OVC014 1.1 1.1 100% -4 75.46 1005.9
02 10:56 S 24 14.48 Light Rain OVC010 1.1 1.1 100% -4 75.46 1006.3
02 09:56 S 31 4.02 Light Snow Fog/Mist OVC008 0.6 0.6 1.1 0.6 100% -5 75.23 1002.9
02 08:56 S 35 3.22 Light Snow Fog/Mist and Breezy OVC008 0.6 0.6 100% -6 75.23 1003.2
02 07:56 S 35 8.05 Light Rain Fog/Mist and Breezy BKN010 OVC019 1.1 1.1 100% -5 75.26 1003.5
02 06:56 S 37 8.05 Light Rain Fog/Mist and Breezy FEW017 BKN022 OVC032 1.1 1.1 100% -5 75.06 1000.8
02 05:56 S 35 9.66 Light Rain Fog/Mist and Breezy OVC008 1.1 1.1 100% -5 75.21 1002.6
02 04:56 S 24 4.83 Light Snow Fog/Mist OVC006 0.6 0.6 100% -5 74.98 999.7
02 03:56 S 28 4.83 Light Snow Fog/Mist OVC004 0.6 0.6 1.1 0.6 100% -5 75.01 1000.1
02 02:56 S 30 4.83 Light Snow Fog/Mist OVC004 0.6 0.6 100% -5 74.9 998.5
02 01:56 S 30 4.83 Light Snow Fog/Mist OVC004 0.6 0.6 100% -5 74.83 997.8
02 00:56 S 26 8.05 Light Snow Fog/Mist OVC004 0.6 0.6 100% -5 74.85 998.1
01 23:56 SE 26 16.09 Light Rain OVC004 0.6 0.6 100% -5 74.68 995.4
01 22:56 SE 30 8.05 Light Rain Fog/Mist OVC006 1.1 1.1 100% -5 74.8 997.1
01 21:56 SE 26 16.09 Light Rain OVC004 1.1 1.1 2.8 0.6 100% -4 74.57 994.2
01 20:56 SE 22 16.09 Light Rain OVC004 1.1 1.1 100% -4 74.63 994.8
01 19:56 SE 22 16.09 Light Rain OVC006 1.1 1.1 100% -4 74.65 995.3
01 18:56 SE 24 12.87 Light Rain OVC006 1.7 1.7 100% -3 74.52 993.4
01 17:56 SE 22 16.09 Unknown Precip OVC006 1.7 1.7 100% -3 74.55 993.8
01 16:56 SE 22 16.09 Overcast OVC006 2.2 2.2 100% -2 74.57 994.2
01 15:56 SE 22 16.09 Unknown Precip FEW006 OVC015 2.8 2.2 4.4 2.2 96% -2 74.57 994.4
01 14:56 S 15 16.09 Unknown Precip BKN015 BKN021 OVC030 2.8 2.2 96% -1 74.63 994.8
01 13:56 S 13 9.66 Light Rain Fog/Mist FEW003 BKN012 OVC017 3.9 3.3 96% 1 74.65 995.4
01 12:56 SW 6 11.27 Light Rain OVC010 3.3 3.3 100% 74.6 994.7
01 11:56 SE 11 11.27 Light Rain OVC008 2.8 2.8 100% 0 74.52 993.4
01 10:56 E 17 16.09 Light Rain OVC010 2.2 2.2 100% -2 74.42 992.1
01 09:56 E 20 16.09 Light Rain BKN010 BKN016 OVC023 2.2 2.2 2.8 2.2 100% -2 74.45 992.5
01 08:56 E 20 16.09 Light Rain OVC010 2.2 2.2 100% -2 74.52 993.4
01 07:56 E 19 14.48 Light Rain OVC008 2.2 2.2 100% -2 74.27 990.3
Date Time (akdt) Wind (kph) Vis. (km) Weather Sky Cond. Air Dwpt Max. Min. Relative Humidity Wind Chill (°C) Heat Index (°C) altimeter (cm) sea level (mb) 1 hr 3 hr 6 hr
6 hour
Temperature (ºC) Pressure Precipitation (cm)